Current weather by "City, St" or "zip code"  
 
Advertise Here

Current Conditions: INDEPENDENCE, KS

Overcast


48.0 F

Last Updated on Feb 28 2021, 6:55 am CST
Humidity: 85%
Wind Speed: N 12.7 mph
Barometer 29.86 in
Dewpoint: 44.1 F
Visibility: 10.00 mi
Precip: --
Heat Index: NA
Wind Chill: 43 F
Current conditions at:

INDEPENDENCE, KS (KIDP)

Lat: 37.1584 Lon: 95.7784

Local Radar Image active severe weather and emergency alerts image image weather storm and storm spotter reports image weather observation monitoring service image
Local
Radar
Active
Alerts
Storm Reports Obs
Monitoring

Sign-up For Email & Text Message Weather Alert Notification Services


Advertise Here

Observation History for INDEPENDENCE, KS


Time Wind
(mph)
Vis
(mi)
Weather Precip (in) Temperature (F) Relative
Humidity
Wind
Chill
(F)
Heat
Index
(F)
Pressure
Air Dwpt altimeter
(in)
sea level
(mb)
Rmks
6:55 am CST N 12.7 10.00 Overcast -- 48.0 44.1 85% 43 NA 29.86 M
5:55 am CST N 15.0 10.00 Overcast -- 50.0 % 45 NA 29.83 M
5:35 am CST NW 16.1 G 19.6 10.00 Overcast -- 52.0 % 47 NA 29.81 M
4:55 am CST NW 5.8 0.15 Fog -- 54.0 % 53 NA 29.79 M
4:35 am CST N 5.8 0.15 Fog -- 54.0 % 53 NA 29.77 M
3:55 am CST NW 4.6 0.15 Fog -- 54.0 % 53 NA 29.77 M
2:55 am CST S 4.6 0.25 Fog -- 54.0 % 53 NA 29.76 M
1:55 am CST S 5.8 0.25 Light Rain Fog -- 54.0 % 53 NA 29.77 M
1:35 am CST SW 6.9 0.25 Fog -- 54.0 % 52 NA 29.78 M
12:55 am CST S 9.2 0.50 Fog -- 54.0 % 51 NA 29.76 M
11:55 pm CST S 13.8 1.00 Fog/Mist -- 54.0 % 50 NA 29.75 M
11:35 pm CST S 15.0 1.75 Fog/Mist -- 54.0 % 50 NA 29.75 M
10:55 pm CST S 11.5 3.50 Fog/Mist -- 54.0 53.8 99% 51 NA 29.76 M
9:55 pm CST S 13.8 10.00 Overcast -- 54.0 52.0 92% 50 NA 29.76 M
8:55 pm CST S 15.0 10.00 Overcast -- 55.0 50.0 84% 51 NA 29.77 M
8:35 pm CST S 15.0 10.00 Overcast -- 55.0 48.7 79% 51 NA 29.77 M
7:55 pm CST S 17.3 10.00 Overcast -- 56.0 46.0 70% 52 NA 29.77 M
7:35 pm CST S 15.0 10.00 Overcast -- 56.0 45.1 68% 52 NA 29.77 M
6:55 pm CST S 15.0 10.00 Overcast -- 56.0 44.2 65% 52 NA 29.78 M
5:55 pm CST S 13.8 10.00 Overcast -- 57.0 43.0 60% 54 NA 29.78 M
4:55 pm CST S 16.1 10.00 Overcast -- 61.0 37.6 42% 59 NA 29.77 M
4:35 pm CST S 21.9 G 27.6 10.00 Overcast and Breezy -- 62.0 38.3 42% 59 NA 29.78 M
3:55 pm CST SE 16.1 10.00 Overcast -- 64.0 39.0 41% NA NA 29.78 M
2:55 pm CST S 17.3 10.00 Overcast -- 64.0 38.3 39% NA NA 29.79 M

Regional Weather Observation


Coffeyville, Coffeyville Municipal Airport, KS (KCFV)

Overcast
51.0 F

Parsons, Tri-City Airport, KS (KPPF)

Fair
63.0 F

Chanute, Chanute Martin Johnson Airport, KS (KCNU)

Overcast
51.0 F

Lt. William M. Milliken Airport, KS (K13K)

Overcast
41.0 F

Allen County Airport, KS (KK88)

NULL
48.0 F

El Dorado Captain Jack Thomas Airport, KS (KEQA)

Fair
37.0 F
Advertise Here

Advertise Here